Погода в Комацу

Япония     36°18′30″N   136°24′14″E
В апреле 2022 года жителям России запретили посещать сайт meteo.paraplan.net по решению Генеральной прокуратуры. Аудитория сайта уменьшилась в 10 раз. Владельцы сайта не видят смысла в поддержке погодного сервера в таких условиях. Сайт будет закрыт в октябре.
темп.,
°C
ветер,
м/с
пор.,
м/с
влажн.,
%
обл.,
%
осадки,
мм/ч
давл.,
гПа
погр.,
м
1 октября, сб
сб100:00+16юв22873 0.0 101720
03:00+16юв22880 0.0 101719
06:00+16вюв21880 0.0 101813
09:00+22ссз21680 0.0 1018538
12:00+24сз22550 0.0 10171244
15:00+22ссз33680 0.0 1017874
18:00+17св11940 0.0 101918
21:00+16вюв219461 0.0 101917
2 октября, вс
вс200:00+15вюв229098 0.0 102018
03:00+14вюв218067 0.0 101916
06:00+13юв22703 0.0 102016
09:00+21з11535 0.0 1020427
12:00+24з2344100 0.0 10191045
15:00+22ссз2164100 0.0 1019609
18:00+18вюв1184100 0.0 102112
21:00+18юв2280100 0.0 102123
3 октября, пн
пн300:00+18юв2272100 0.0 102038
03:00+18юв2276100 0.0 102039
06:00+16юв2269100 0.0 102135
09:00+23ю2354100 0.0 1021428
12:00+23з136526 0.0 1019367
15:00+25ююз24424 0.0 10181457
18:00+18юв32726 0.0 101941
21:00+17юв33713 0.0 101953
4 октября, вт
вт400:00+16юв347997 0.0 101777
03:00+16юв348116 0.0 101582
06:00+16ююв458299 0.0 1014116
09:00+19ююв367782 0.0 1014269
12:00+20ююв2475100 0.0 1012188
15:00+23ю4764100 0.0 1010905
18:00+20ююв377898 0.0 1010216
21:00+19ю3889100 0.6 1011255
5 октября, ср
ср500:00+17с3699100 13.3 1011457
03:00+14с3799100 20.6 1014535
06:00+14с2799100 1.7 1015649
09:00+12с3898100 2.4 1017590
12:00+13с4691100 0.1 1017585
15:00+12с3687100 0.1 1017554
18:00+11ссв358834 0.0 1018298
21:00+9всв22950 0.0 102028